Regional Weather Roundup
Issued by NWS

Home | Current Version | Previous Version | Text Only | Print | Product List | Glossary Off
Versions: 1 2 3 4 5 6 7 8 9 10 11 12 13 14 15 16 17 18 19 20 21 22 23 24 25 26 27 28 29 30 31 32 33 34 35 36 37 38 39 40 41 42 43 44 45 46 47 48 49 50

000
ASUS43 KIND 120559
RWRIN

WEATHER ROUNDUP FOR INDIANA
NATIONAL WEATHER SERVICE INDIANAPOLIS IN
100 AM EST TUE DEC 12 2017

NOTE: "FAIR" INDICATES FEW OR NO CLOUDS BELOW 12,000 FEET WITH NO
SIGNIFICANT WEATHER AND/OR OBSTRUCTIONS TO VISIBILITY.

* - STATION DOES NOT REPORT WEATHER SUCH AS PRECIPITATION OR FOG.

+ - STATION NOT QUALITY CONTROLLED BY THE NATIONAL WEATHER SERVICE.
    USE DATA WITH CAUTION...ESPECIALLY DEWPOINT AND RELATIVE
    HUMIDITY OBSERVATIONS.

INZ001>003-010>013-019-020-120700-
NORTHWEST INDIANA

CITY           SKY/WX    TMP DP  RH WIND       PRES   REMARKS
MICHIGAN CITY+ CLOUDY    32  27  80 NW17G32   29.84R WCI  21
MONTICELLO +   CLOUDY    33  28  81 NW18G26   29.83R WCI  22
6HR MIN TEMP:  28; 6HR MAX TEMP:  35;

RENSSELAER +   CLOUDY    32  27  80 NW15G23   29.87R WCI  22

$$

LMZ046-743>745-120700-
SOUTHERN LAKE MICHIGAN

STATION/POSITION TIME  TEMP    WIND        PRES    WAVE
                       AIR SEA DIR/SP/G            HT
                 (UTC) (F)     (DEG/KT/KT) (MB)    (FT)
BURNS HARBOR     0540   34     330/ 22/ 29 1011.5R
MICHIGAN CITY    0530   34     330/ 32/ 36   N/A

$$

INZ004-005-014>016-021>024-120700-
NORTH CENTRAL INDIANA

CITY           SKY/WX    TMP DP  RH WIND       PRES   REMARKS
GOSHEN         CLOUDY    34  29  82 NW20G32   29.75R WCI  23
6HR MIN TEMP:  29; 6HR MAX TEMP:  34; 6HR PCP:  0.01;

PERU/GRISSOM   CLOUDY    34  33  95 NW17      29.77S WCI  24
6HR MIN TEMP:  31; 6HR MAX TEMP:  37; 6HR PCP: TRACE;

SOUTH BEND     CLOUDY    32  29  88 NW20G29   29.80R WCI  20
6HR MIN TEMP:  29; 6HR MAX TEMP:  34; 6HR PCP:  0.03;


$$

INZ006>009-017-018-025>027-120700-
NORTHEAST INDIANA

CITY           SKY/WX    TMP DP  RH WIND       PRES   REMARKS
FORT WAYNE     LGT SNOW  33  31  92 NW13G22   29.73R FOG     WCI  24
6HR MIN TEMP:  29; 6HR MAX TEMP:  33; 6HR PCP: TRACE;

KENDALLVILLE + CLOUDY    32  31  97 NW12G18   29.71R FOG     WCI  23

$$

INZ028-029-035-036-043>045-051>053-120700-
WEST CENTRAL INDIANA

CITY           SKY/WX    TMP DP  RH WIND       PRES   REMARKS
CRAWFORDSVL +  CLOUDY    32  28  87 NW21G29   29.86R WCI  20
6HR MIN TEMP:  32; 6HR MAX TEMP:  41;

LAFAYETTE      CLOUDY    33  28  81 NW16G25   29.86R WCI  23
6HR MIN TEMP:  32; 6HR MAX TEMP:  41;

TERRE HAUTE    CLOUDY    36  29  75 NW16G30   29.90R WCI  26
6HR MIN TEMP:  36; 6HR MAX TEMP:  46; 6HR PCP: TRACE;


$$

INZ030>032-037>040-046>048-054>057-064-065-120700-
CENTRAL INDIANA

CITY           SKY/WX    TMP DP  RH WIND       PRES   REMARKS
INDIANAPOLIS   CLOUDY    35  28  75 NW24G30   29.83R WCI  23
6HR MIN TEMP:  35; 6HR MAX TEMP:  45;

-EAGLE CREEK   CLOUDY    35  28  75 NW20G30   29.82R WCI  24
6HR MIN TEMP:  35; 6HR MAX TEMP:  46;

KOKOMO +       CLOUDY    34  31  88 NW17G24   29.79R WCI  23
6HR MIN TEMP:  30; 6HR MAX TEMP:  37; 6HR PCP: TRACE;

MT COMFORT *+  CLOUDY    34  32  93 NW21G28   29.81R WCI  22
SHELBYVILLE    CLOUDY    37  27  67 NW17G25   29.80R WCI  27
6HR MIN TEMP:  37; 6HR MAX TEMP:  44;


$$

INZ033-034-041-042-049-050-058-059-120700-
EAST CENTRAL INDIANA

CITY           SKY/WX    TMP DP  RH WIND       PRES   REMARKS
MUNCIE         LGT SNOW  34  28  79 NW17G24   29.75R WCI  23
6HR MIN TEMP:  33; 6HR MAX TEMP:  41; 6HR PCP: TRACE;

RICHMOND +     MOCLDY    34  28  80 NW20G29   29.71R WCI  22

$$

INZ060-061-067>069-081>083-085>088-120700-
SOUTHWEST INDIANA

CITY           SKY/WX    TMP DP  RH WIND       PRES   REMARKS
EVANSVILLE     CLOUDY    44  34  67 NW16G28   29.93R
6HR MIN TEMP:  44; 6HR MAX TEMP:  53;

HUNTINGBURG +  CLOUDY    43  33  68 NW21G32   29.89R
6HR MIN TEMP:  43; 6HR MAX TEMP:  51;


$$

INZ062-063-066-070>080-084-089>092-120700-
SOUTH CENTRAL AND SOUTHEAST INDIANA

CITY           SKY/WX    TMP DP  RH WIND       PRES   REMARKS
BLOOMINGTON    CLOUDY    37  28  70 NW12      29.85R WCI  29
6HR MIN TEMP:  37; 6HR MAX TEMP:  49;

SEYMOUR +      CLOUDY    41  27  56 W15       29.82R

$$




USA.gov is the U.S. government's official web portal to all federal, state and local government web resources and services.